Filtrer par Nom Sexe Groupe d'age
Grimpee Alpe d'Huez 2018
RG. DOS. TEMPS CAT RG. POINTS
1 10 GALLEGO MIKAEL 00:42:14 Hom 1 0.00 LA MOTTE D AVEILLANS, FRANCE
2 133 DEBERTIN DANIEL 00:45:04 Hom 2 0.00 KARLSRUHE, Allemagne
3 10016 NIJSSEN KENNY 00:45:04 Hom 3 0.00 Haarlem, Pays-Bas
4 10027 LEMAITRE THOMAS 00:46:37 Hom 4 0.00 SAINT RAPHAEL, FRANCE
5 180 WILSON RAY 00:48:17 Hom 5 0.00 LONDON, Royaume-Uni
6 238 GILLING RORY 00:48:23 Hom 6 0.00 CIRENCESTER, Royaume-Uni
7 199 VAN LANDEGHEM HEDWIG 00:48:26 Hom 7 0.00 STEKENE, BELGIQUE
8 224 VAN DER WEIJST ROBERT 00:48:37 Hom 8 0.00 EINDHOVEN, Pays-Bas
9 236 VAN TONGEREN THIJS 00:48:40 Hom 9 0.00 DEN HAAG, Pays-Bas
10 264 FELLER MICHAEL 00:48:42 Hom 10 0.00 ESCH SUR ALZETTE, Luxembourg
11 176 WESTSTRATE ROEDI 00:48:42 Hom 11 0.00 s-Heer Arendskerke, Pays-Bas
12 30 VERPOORT EDIAN 00:49:23 Hom 12 0.00 Eindhoven, Pays-Bas
13 5265 DILLING WOUTER 00:49:24 Hom 13 0.00 NIJMEGEN, Pays-Bas
14 345 HAEGEMAN DAVID 00:49:36 Hom 14 0.00 BAVEGEM, Belgique
15 262 ROBINSON ALISTAIR 00:49:47 Hom 15 0.00 PENRITH, Royaume-Uni
16 824 JENSEN ANDERS KROGH 00:50:04 Hom 16 0.00 BROVST, Danemark
17 277 JANSEN RUBEN 00:50:26 Hom 17 0.00 DRONTEN, Pays-Bas
18 2780 ? ? 00:50:27 J 1 0.00 ,
19 10048 ? ? 00:50:27 J 2 0.00 ,
20 370 NIELSEN MARTIN 00:50:42 Hom 18 0.00 ODENSE C, Danemark
21 198 DE KERF DANIEL 00:50:50 Hom 19 0.00 Sint-Niklaas, Belgique
22 5259 VAN OORSCHOT TOM 00:51:34 Hom 20 0.00 NIJMEGEN, Pays-Bas
23 196 BEULLENS DIRK 00:51:35 Hom 21 0.00 herent, Belgique
24 237 Henderson Jamie 00:51:38 Hom 22 0.00 GLENROTHES, France
25 333 TORN›E PAGH MORTEN 00:51:50 Hom 23 0.00 BAGSVAERD, DANEMARK
26 206 EDELENBOS ROLF 00:51:58 Hom 24 0.00 DRONTEN, Pays-Bas
27 1555 DAVIS GUY 00:51:59 Hom 25 0.00 MAIDENHEAD, Royaume-Uni
28 4835 KWASNICKI WLADYSLAW 00:52:03 Hom 26 0.00 ZURICH, SUISSE
29 285 VANHAESEBROECK HANS 00:52:25 H 1 0.00 DEINZE, Belgique
30 10023 TIBERIO YOANN 00:52:27 Hom 27 0.00 SEYSSUEL, France
31 10054 ALLEMAN TIM 00:52:29 Hom 28 0.00 Bredene, Belgique
32 35 STEGENGA TJEMME 00:52:43 Hom 29 0.00 AMERSFOORT, Pays-Bas
33 216 RECKTENWALD JAN PHILIPP 00:52:43 Hom 30 0.00 ILLINGEN, Allemagne
34 256 KAY SETH 00:52:46 Hom 31 0.00 WHITSTABLE, France
35 10031 GORGEOT YANN 00:52:48 Hom 32 0.00 CRUSEILLES, FRANCE
36 1776 VAN HEUGTEN JONDALAR 00:52:48 Hom 33 0.00 WAGENINGEN, Pays-Bas
37 280 GRIFFITHS DAVID 00:52:50 Hom 34 0.00 OSWESTRY, Royaume-Uni
38 10013 OVEREEM ROBIN 00:52:59 Hom 35 0.00 UDEN, Pays-Bas
39 884 RENET LEON 00:52:59 Hom 36 0.00 Echt, Pays-Bas
40 5488 SELETTI ALESSANDRO 00:53:00 Hom 37 0.00 MONTECCHIO EMILIA (RE), ITALIE
41 402 RASK JESPER 00:53:02 Hom 38 0.00 KOLDING, DANEMARK
42 5256 ARTS DORUS 00:53:04 Hom 39 0.00 ARNHEM, Pays-Bas
43 1349 HABETS MATHIJS 00:53:09 Hom 40 0.00 AMERSFOORT, Pays-bas
44 398 MCGUINNESS GARETH 00:53:16 Hom 41 0.00 GWYNEDD, Royaume-Uni
45 270 VERCOUTTER JONAS 00:53:26 Hom 42 0.00 WERVIK, Belgique
46 798 BARZILAIJ RONALD 00:53:27 Hom 43 0.00 VLAARDINGEN, Pays-Bas
47 33 NESCI DAVIDE 00:53:37 Hom 44 0.00 PREDAZZO, Italie
48 1899 BOENNELYKKE LASSE HOLM 00:53:41 Hom 45 0.00 AALBORG, DANEMARK
49 282 BARENDSE MAURICE 00:53:50 Hom 46 0.00 NAALDWIJK, Pays-Bas
50 266 TERMEER THIJS 00:54:02 Hom 47 0.00 WIERINGERWERF, Pays-bas
51 32 VAN DIJK MARINA 00:54:11 Fe 1 0.00 AMERSFOORT, Pays-Bas
52 403 VAN SUMMEREN FRANK 00:54:15 Hom 48 0.00 UDEN, Pays-bas
53 10015 LOSSERAND JONATHAN 00:54:17 Hom 49 0.00 VILLEURBANNE, FRANCE
54 229 Borghs Eric 00:54:20 Hom 50 0.00 GEEL, Belgique
55 223 DE NAYER JAN 00:54:30 Hom 51 0.00 BRECHT, BELGIQUE
56 265 TERMEER REMI 00:54:31 Hom 52 0.00 WIERINGERWERF, Pays-Bas
57 10056 ANDERSEN MORTEN 00:54:32 Hom 53 0.00 THISTED, DANEMARK
58 10033 LAGARDE HENRI 00:54:35 Hom 54 0.00 , FRANCE
59 4922 KOCH EDWIN 00:54:40 Hom 55 0.00 THOLEY, ALLEMAGNE
60 10036 BIRGER CHRISTENSEN CHRISTIAN 00:55:01 Hom 56 0.00 LYNGBY, DANEMARK
61 240 PETERS JIM 00:55:12 Hom 57 0.00 Loughborough, Royaume-Uni
62 5269 JACOBS GIJS 00:55:19 Hom 58 0.00 NIJMEGEN, Pays-Bas
63 221 DI FRUSCIA GERMAIN 00:55:22 Hom 59 0.00 VARCES ALLIERES ET RISSET, FRANCE
64 8019 GUNS KRIS 00:55:24 Hom 60 0.00 SAI YING PUN, Hong-Kong
65 954 VAN ERP TON 00:55:28 Hom 61 0.00 KESTEREN, Pays-Bas
66 10066 PALMER IAIN 00:55:38 Hom 62 0.00 BRISTOL, Royaume-Uni
67 10011 RIPMEESTER ERWIN 00:55:52 Hom 63 0.00 Voorschoten, Pays-Bas
68 4801 GROOTVELD JORAM 00:56:26 Hom 64 0.00 DELFT, Pays-Bas
69 2767 VAN TUIJL TON 00:56:39 Hom 65 0.00 Geffen, Pays-Bas
70 207 HUMPHRIES NEAL 00:56:41 Hom 66 0.00 BINFIELD, Royaume-Uni
71 5486 KERKHOF LEVI 00:56:45 Hom 67 0.00 EDE, Pays-Bas
72 5007 TEN HAVE BAS 00:56:46 Hom 68 0.00 ENSCHEDE, Pays-Bas
73 1444 BORNET OLIVIER 00:56:56 Hom 69 0.00 ISSY LES MOULINEAUX, France
74 1556 SMEDEGAARD MORTEN 00:57:03 Hom 70 0.00 ESBJERG N, Danemark
75 281 FRANSGAARD ANDERS CHRISTIAN 00:57:14 Hom 71 0.00 VIBORG, Danemark
76 10021 LYU ZHENGXIN 00:57:33 Hom 72 0.00 BEIJING, CHINE
77 5458 WOODHOUSE DAVID 00:57:33 Hom 73 0.00 Henley on Thames, Royaume-Uni
78 823 JAKOBSEN MARLENE 00:57:34 Fe 2 0.00 BROVST, Danemark
79 911 JUANJO GARCIA 00:57:41 Hom 74 0.00 TERRASSA, ESPAGNE
80 1634 LEHMANN MARTIN 00:57:46 Hom 75 0.00 AALBORG, DANEMARK
81 10043 MAURY FRANCIS 00:57:53 Hom 76 0.00 SAINT AFFRIQUE, France
82 4622 ADRIAANS WILLEM 00:57:54 Hom 77 0.00 EINDHOVEN, Pays-Bas
83 10061 BLAND MATTHEW 00:57:58 Hom 78 0.00 LONDON, Royaume-Uni
84 1600 JEAN JOHN 00:57:59 Hom 79 0.00 MONTREAL, Canada
85 1083 ALBREKTSEN HENRIK 00:58:05 Hom 80 0.00 AALBORC, Danemark
86 5025 DAMGAARD LARS 00:58:06 Hom 81 0.00 VESTERVIG, DANEMARK
87 1064 RAVN NICOLAI 00:58:16 Hom 82 0.00 KOEGE, Danemark
88 825 ERIKSEN FRANK 00:58:25 Hom 83 0.00 RANDERS SOE, DANEMARK
89 1694 PETERSEN TONNY 00:58:45 Hom 84 0.00 GLUMSOE, Danemark
90 249 VAN GELDEREN ELLO 00:58:45 Hom 85 0.00 Haarlem, Pays-Bas
91 3965 ALBLAS WANDER 00:58:45 Hom 86 0.00 ARNHEM, Pays-Bas
92 9081 OLSEN ANDERS 00:58:48 Hom 87 0.00 TAASTRUP, DANEMARK
93 10051 ALLUYN KENNY 00:58:48 Hom 88 0.00 Oudenaarde, Belgique
94 1009 BRUN BENJAMIN 00:58:48 Hom 89 0.00 CHAMPNIERS, FRANCE
95 6466 PULVERTAFT ROBERT 00:58:50 Hom 90 0.00 Copenhagen N, Danemark
96 1315 LARSEN MORTEN 00:58:50 Hom 91 0.00 COPENHAGEN, Danemark
97 209 MARTINSEN BO 00:58:56 Hom 92 0.00 ESBJERG, Danemark
98 2768 VISSERS ADRIE 00:59:09 Hom 93 0.00 Oss, Pays-Bas
99 10044 VANDERROOST FREDERIK 00:59:09 Hom 94 0.00 Halle, Belgique
100 1904 MEIJER ESTHER 00:59:22 Fe 3 0.00 VEENENDAAL, Pays-Bas
101 1011 NAVARRO CASBAS TOMAS 00:59:22 Hom 95 0.00 NAERUM, Danemark
102 10057 VAN DEN WIJNGAARD INGRID 00:59:24 Fe 4 0.00 OOSTERHOUT, Pays-Bas
103 211 CAREELMAN MICHAEL 00:59:37 Hom 96 0.00 KLUISBERGEN, Belgique
104 10040 FABRY MICHEL 00:59:38 Hom 97 0.00 POLLEUR, Belgique
105 6074 DEWALD THOMAS 00:59:41 Hom 98 0.00 WEISKIRCHEN, Allemagne
106 3782 KEIJSERS MARK 00:59:42 Hom 99 0.00 UTRECHT, Pays-Bas
107 10039 MACHIELSEN JOHANNES 00:59:43 Hom 100 0.00 OIRSCHOT, Pays-Bas
108 143 LAWRENCE KEITH 00:59:49 Hom 101 0.00 LONDON, Royaume-uni
109 261 DE JAEGER PETER 00:59:54 Hom 102 0.00 Avelgem, Belgique
110 10047 ROUFFIAC ALOIS 00:59:55 Hom 103 0.00 PENNE D AGENAIS, FRANCE
111 10049 BROUWER LAURENS 01:00:06 Hom 104 0.00 BREDA, Pays-Bas
112 863 COBBETT JULIUS 01:00:07 Hom 105 0.00 MERZHAUSEN, ALLEMAGNE
113 156 WULLAERT KENNY 01:00:08 Hom 106 0.00 Bazel, Belgique
114 826 CHRISTENSEN JOHAN SKJOEDT 01:00:08 Hom 107 0.00 Randers, Danemark
115 1578 ATTIWELL PAUL 01:00:22 Hom 108 0.00 SWINDON, Royaume-Uni
116 1324 VAN EIJK RUBEN 01:00:22 Hom 109 0.00 UTRECHT, Pays-Bas
117 4731 PILKINGTON CHARLIE 01:00:24 Hom 110 0.00 Cirencester, Royaume-Uni
118 1301 BAKER ALEX 01:00:28 Hom 111 0.00 BARCELONA, ESPAGNE
119 1524 VEJLBO CHRISTIAN 01:00:29 Hom 112 0.00 FREDERIKSSUND, DANEMARK
120 1002 WORN MIRKO 01:00:29 Hom 113 0.00 Kirchheim unter Teck, Allemagne
121 10034 FELIX NICOLAS 01:00:31 Hom 114 0.00 VILLENEUVE LOUBET, France
122 5247 TRUCHON CEDRIK 01:00:37 Hom 115 0.00 ROSEMERE, CANADA
123 2776 TUBEECKX JAN 01:00:38 Hom 116 0.00 ANTWERPEN, BELGIQUE
124 4512 DE BAKKER ROBERT 01:00:38 Hom 117 0.00 EINDHOVEN, Pays-Bas
125 1571 PAGE JACK 01:00:48 Hom 118 0.00 SHIPLEY, Royaume-Uni
126 3659 GRIJPMA BART 01:00:51 Hom 119 0.00 ANGERLO, Pays-Bas
127 10010 WIND WALTER 01:00:52 Hom 120 0.00 RAALTE, Pays-Bas
128 10032 BREED JORIS 01:01:06 Hom 121 0.00 UDEN, Pays-bas
129 189 VAN DER LINDEN DAVY 01:01:12 Hom 122 0.00 Merelbeke, Belgique
130 245 JONGBLOED JORRIT 01:01:20 Hom 123 0.00 VLIJMEN, Pays-bas
131 1681 BRON ROGIER 01:01:21 Hom 124 0.00 AMSTERDAM, Pays-Bas
132 2760 CULHANE AIDAN 01:01:23 Hom 125 0.00 LONDON, Royaume-Uni
133 1458 OUD ARIE 01:01:29 Hom 126 0.00 WIERINGERWERF, Pays-Bas
134 2770 BIJVELD WOUTER 01:01:45 Hom 127 0.00 GEFFEN, Pays-Bas
135 6258 LUECKHOF JENS 01:02:07 Hom 128 0.00 BENSHEIM, Allemagne
136 10037 CAPRON ALAIN 01:02:10 Hom 129 0.00 Auris en Oisans, France
137 1897 SCHULLER CELINE 01:02:12 Fe 5 0.00 FROGES, FRANCE
138 141 SCHEINOK JULIEN 01:02:25 Hom 130 0.00 Jette, Belgique
139 5454 VACHON MATHIEU 01:02:30 Hom 131 0.00 GRANBY, CANADA
140 10030 RAKI-JAIBI TOUFIK 01:02:32 Hom 132 0.00 CHAMBERY, FRANCE
141 10058 DE GEETER AARON 01:02:42 Hom 133 0.00 AARDENBURG, Pays-Bas
142 1023 LARSEN CLAUS 01:03:00 Hom 134 0.00 BR_NSH_J, Danemark
143 1847 RUNNEDAHL JOHAN 01:03:00 Hom 135 0.00 STOCKHOLM, Suède
144 2774 GRUIJTHUIZEN TWAN 01:03:21 Hom 136 0.00 GEFFEN, Pays-Bas
145 1712 THOREAU BRUNO 01:03:39 Hom 137 0.00 MONTREUIL BELLAY, FRANCE
146 9 LAMONTAGNE PIERRE MARC 01:03:40 Hom 138 0.00 ST AUBIN, FRANCE
147 10026 DEBUCK LAURENT 01:04:07 Hom 139 0.00 GRENOBLE, France
148 1331 SKOVMOSE HENRIK 01:04:10 Hom 140 0.00 HANSTHOLM, DANEMARK
149 10062 DE CLOPPER JIMMY 01:04:20 Hom 141 0.00 UITBERGEN, Belgique
150 3778 DAVIS PHIL 01:04:29 Hom 142 0.00 IPSWICH, FRANCE
151 4589 LANG CHRISTIAN 01:04:30 Hom 143 0.00 THOLEY, ALLEMAGNE
152 3465 PRADY LOUIS 01:04:32 Hom 144 0.00 PARIS, France
153 4655 VAN LOON BAS 01:04:32 Hom 145 0.00 EINDHOVEN, Pays-Bas
154 1707 GARETH COBB 01:04:35 Hom 146 0.00 POOLE, UK
155 215 LABEAU OLIVIER 01:04:52 Hom 147 0.00 HASPARREN, France
156 1898 OVERBY LARS 01:05:02 Hom 148 0.00 AALBORG, DANEMARK
157 2761 MCCRONE GLEN 01:05:04 Hom 149 0.00 BRADFORD, ONTARIO, CANADA
158 10060 WULTEPUTTE BRAM 01:05:39 Hom 150 0.00 Lokeren, Belgique
159 1686 MOLLOY TIM 01:05:40 Hom 151 0.00 LONDON, Royaume-Uni
160 1333 BACCERINI LUIGI 01:05:50 Hom 152 0.00 Bangor, Royaume-Uni
161 148 WIJNJA JELLE 01:06:05 Hom 153 0.00 UTRECHT, Pays-Bas
162 9082 OLSEN BISGAARD RASMUS 01:06:10 Hom 154 0.00 TAASTRUP, DANEMARK
163 3467 BERARD PIERRE 01:06:12 Hom 155 0.00 Lyon, FRANCE
164 860 MOIR CRAIG 01:06:12 Hom 156 0.00 JOHANNESBURG, AFRIQUE DU SUD
165 10052 WARE VICTORIA 01:06:32 Fe 6 0.00 PENRITH, Espagne
166 1693 HANSEN MICHAEL 01:06:36 Hom 157 0.00 KOEGE, Danemark
167 566 AUDENAERT DIDIER 01:06:37 Hom 158 0.00 SINT-GILLIS-WAAS, Belgique
168 3834 DE BOKX MARC 01:06:40 Hom 159 0.00 AMSTERDAM, Pays-Bas
169 1190 KNUDSEN HARALD 01:06:46 Hom 160 0.00 ESBJERG, Danemark
170 2291 ? ? 01:06:59 J 3 0.00 ,
171 2289 ? ? 01:07:04 J 4 0.00 ,
172 2763 MOSELEY PAULA 01:07:13 Fe 7 0.00 HEREFORD, Royaume-Uni
173 2867 SOHOLT SOREN 01:07:16 Hom 161 0.00 KALUNDBORG, DANEMARK
174 355 ROLLMANN PETER 01:07:17 Hom 162 0.00 ADENAU, Allemagne
175 4724 VAN BURK HANS 01:07:24 Hom 163 0.00 ZUTPHEN, Pays-Bas
176 862 CORREIA JOSE 01:07:26 Hom 164 0.00 BEDFORDVIEW GAUTENG, AFRIQUE DU SUD
177 3252 ? ? 01:07:58 J 5 0.00 ,
178 1183 FONS CARSTEN 01:08:14 Hom 165 0.00 ESBJERG, Danemark
179 1200 WHITAKER MICK 01:08:16 Hom 166 0.00 ADELAIDE, Australie
180 1611 STUURMAN LINDA 01:08:24 Fe 8 0.00 Capelle a/d IJssel, Pays-Bas
181 5329 DE BLOCK LUDWIG 01:08:25 Hom 167 0.00 Sint-gillis-waas, Belgique
182 10020 BIRCK Céline 01:08:30 Fe 9 0.00 AIX LES BAINS, FRANCE
183 1065 ULRICH SIMON 01:08:35 Hom 168 0.00 Hvidovre, Danemark
184 1194 FAURHOLT JESPER 01:08:39 Hom 169 0.00 ESBJERG, Danemark
185 2829 ARNOUTS JOHN 01:08:40 Hom 170 0.00 REET, Belgique
186 3001 METELKA MICHAL 01:09:36 Hom 171 0.00 PRAGUE, Czech Republic
187 4664 HEMMING JONATHAN 01:09:39 Hom 172 0.00 LONDON, Royaume-Uni
188 1022 LUND MICHAEL 01:09:39 Hom 173 0.00 KŸ_T _ô“€‘BENHAVN ô“€‹_, Danemark
189 10038 HUYGEBAERT HERWIG 01:09:40 Hom 174 0.00 VOREPPE, France
190 3640 MCDIARMID JAMES 01:09:50 Hom 175 0.00 CALLINGTON, Royaume-Uni
191 2831 Christiansen Roland 01:10:03 Hom 176 0.00 Vejle Øst, Denmark
192 3577 CONDAL JORDI 01:10:30 Hom 177 0.00 CALDES DE MONTBUI, ESPAGNE
193 5392 BEAUCHAMP ANDREW 01:10:33 Hom 178 0.00 BROSSARD, CANADA
194 859 RUBENSTEIN TERRY 01:11:14 Hom 179 0.00 EDENVALE, AFRIQUE DU SUD
195 2919 ROGERS LUKE 01:11:21 Hom 180 0.00 GLOUCESTERSHIRE, Royaume-Uni
196 7152 FLYGARE ANDRE 01:11:39 Hom 181 0.00 DUESSELDORF, Allemagne
197 3005 JANDA RADOVAN 01:11:49 Hom 182 0.00 PRAGUE, TchŠque, R‚publique
198 4979 LACASSE STéPHANE 01:11:58 Hom 183 0.00 BOUCHERVILLE, CANADA
199 1332 NIELSEN KLAUS 01:11:59 Hom 184 0.00 SNEDSTED, DANEMARK
200 51 TAX JANNEKE 01:12:01 Fe 10 0.00 Nieuwegein, Pays-Bas
201 1038 NIELSEN KJELD 01:12:04 Hom 185 0.00 Vejle, Danemark
202 10065 APICELLA FRANCOIS 01:12:04 Hom 186 0.00 GUYANCOURT, France
203 10055 HEINHUIS EVERT 01:12:18 Hom 187 0.00 HAVELTE, Pays-Bas
204 52 JIMENEZ NOEL 01:12:29 Hom 188 0.00 CHAPONOST, France
205 8020 VAN LAER CORA 01:12:41 Fe 11 0.00 SAI YING PUN, Hong-Kong
206 688 DRABOEL HENRIK 01:12:45 Hom 189 0.00 HELLERUP, Danemark
207 10053 JENSEN HENRIK ABILD 01:13:03 Hom 190 0.00 VIBORG, Danemark
208 3295 DAVIES ANDY 01:13:22 Hom 191 0.00 TELFORD, Royaume-Uni
209 814 ? ? 01:13:33 J 6 0.00 ,
210 1151 BIER ARJAN 01:13:34 Hom 192 0.00 MAARSSEN, Pays-Bas
211 4811 ? ? 01:13:41 J 7 0.00 ,
212 6261 BALFOUR LEWIS 01:13:54 Hom 193 0.00 NEWCASTLE UPON TYNE, Royaume-Uni
213 6033 LAGAEYSSE HANS 01:13:57 Hom 194 0.00 Russeignies (Mont de l Enclus), Belgique
214 10006 VAN DE WIJNCKEL TAMARA 01:13:59 Fe 12 0.00 TERNEUZEN, Pays-Bas
215 2802 VAN DER MEULEN FRANK 01:14:26 Hom 195 0.00 HOORN NH, Pays-Bas
216 5492 NETO JOSé ROCHA 01:14:32 Hom 196 0.00 BELO HORIZONTE, BRESIL
217 2825 GOUGEON GILLES 01:14:37 Hom 197 0.00 LAVAL, Canada
218 565 AUDENAERT SARAH 01:14:40 Fe 13 0.00 Sint-Niklaas, Belgique
219 568 VEREECKEN LUDWIG 01:14:40 Hom 198 0.00 TEMSE, BELGIQUE
220 10064 ISENBORGHS CHRISTEL 01:15:44 Fe 14 0.00 , BELGIQUE
221 1199 RASMUSSEN KLAUS KRISTIAN 01:15:44 Hom 199 0.00 H›RVE, Danemark
222 2140 LARSEN JOHNNY 01:15:45 Hom 200 0.00 ASNAES, Danemark
223 3118 SILLITOE CALLUM 01:16:06 Hom 201 0.00 WING, Royaume-Uni
224 908 WEBER ROLAND 01:16:44 Hom 202 0.00 Traben-Trarbach, Allemagne
225 3438 ABARCA REQUES JESUS 01:17:05 Hom 203 0.00 Leganes, Espagne
226 2887 MACNAUGHTON PETER 01:17:50 Hom 204 0.00 YELVERTON, Royaume-Uni
227 2864 CHARBONNEAU MICHEL 01:18:38 Hom 205 0.00 LA PRAIRIE, CANADA
228 910 ROMERO RAMIREZ LUIS CARLOS 01:18:43 Hom 206 0.00 TERRASSA- BARCELONA, ESPAGNE
229 10063 SYS THOMAS 01:19:08 Hom 207 0.00 GENT, BELGIQUE
230 5320 DE MAAT MARK 01:19:08 Hom 208 0.00 Moerbeke, Belgique
231 10007 CLAGUE PETER 01:19:08 Hom 209 0.00 ISLE OF MAN, Royaume-Uni
232 3842 GRIJPMA RADBOUD 01:19:48 Hom 210 0.00 AMSTERDAM, Pays-Bas
233 3493 PEDERSEN KIM 01:19:51 Hom 211 0.00 TAASTRUP, Danemark
234 1095 BEZEMER JURN 01:20:33 Hom 212 0.00 DEN HOORN, Pays-Bas
235 2762 MC KAY CHRISTINE 01:21:06 Fe 15 0.00 CONWAY, Royaume-Uni
236 2801 SHRUBB BRYAN 01:21:08 Hom 213 0.00 DARRINGTON, PONTEFRACT, Royaume-uni
237 10045 DRUMMOND GORDON 01:21:29 Hom 214 0.00 FREUCHIE, Royaume-Uni
238 5017 MEIGH ROBERT 01:21:53 Hom 215 0.00 NEWCASTLE UPON TYNE, FRANCE
239 10046 ISLES SCOTT 01:22:18 Hom 216 0.00 GLENROTHES, Royaume-Uni
240 4748 WARD ANTHONY 01:22:25 Hom 217 0.00 GLENROTHES, Royaume-Uni
241 1133 CHRISTENSEN KIM FRANCK 01:23:06 Hom 218 0.00 VEJLE, Danemark
242 10059 WINTHER HENRIK 01:23:17 Hom 219 0.00 ALLER›D, Danemark
243 5117 CUESTA ILLANA JULIAN 01:23:39 Hom 220 0.00 VALENCIA, Espagne
244 3881 COLLETTE MARC 01:24:12 Hom 221 0.00 SALLANCHES, FRANCE
245 2858 BUGNI PATRICK 01:24:28 Hom 222 0.00 FONTAINE, France
246 10035 DURUPT ANNE-LAURE 01:24:28 Fe 16 0.00 ST CHAMOND, France
247 881 GIROU VINCENT 01:25:51 Hom 223 0.00 PARIS, FRANCE
248 4543 WESTBURY ANTHONY (TONY) 01:26:06 Hom 224 0.00 Melrose, Royaume-Uni
249 10029 BOULANGER ELSA 01:28:21 Fe 17 0.00 RIGARDA, FRANCE
250 10041 CLEBAN MORGAN 01:28:52 Hom 225 0.00 , BELGIQUE
251 7742 ? ? 01:29:53 J 8 0.00 ,
252 10008 TAYLOR JANET 01:30:02 Fe 18 0.00 ONCHAN, Royaume-Uni
253 4822 RASMUSSEN BIRTHE 01:30:45 Fe 19 0.00 HøRVE, Danemark
254 7589 BEVAN PHILIP 01:30:46 Hom 226 0.00 RICHMOND, Royaume-Uni
255 861 BERTOLINO SALVATORE 01:31:17 Hom 227 0.00 BERKSHIRE, Royaume-Uni
256 5188 VAN DER BRUGGEN LIEKE 01:33:00 Fe 20 0.00 NIJMEGEN, Pays-Bas
257 10042 BONNEMAINS THIBAUT 01:33:16 Hom 228 0.00 URVILLE-NACQUEVILLE, FRANCE
258 3436 ROCHA LUIZ 01:42:15 Hom 229 0.00 BELO HORIZONTE, BRESIL
259 10028 VERBERNE-VAN DE LAAK CARLIEN 01:42:15 Fe 21 0.00 NIJMEGEN, Pays-Bas
260 891 VAN BELLEN GIJS 01:43:34 Hom 230 0.00 GENT, BELGIQUE
261 563 ? ? 01:47:43 J 9 0.00 ,

GRANFONDO VOSGES

Report de la Granfondo Vosges

Les organisateurs de la Granfondo Vosges auront tout essayé, notamment via une candidature et une sélection pour devenir événement test. Cependant, le contexte sanitaire actuel aura eu raison de l'édition qui devait se tenir le 16 mai prochain.

Par conséquent, nous vous confirmons le report de la Granfondo Vosges au dimanche 12 septembre 2021.

Toutes les personnes inscrites vont recevoir un mail le 8 avril avec les informations utiles. Via ce mail, vous aurez accès à un formulaire pour nous indiquer si :

-vous êtes disponible le dimanche 12 septembre.
OU
-si vous souhaitez reporter votre inscription pour l'édition de 2022. Attention, vous avez jusqu'au 31 mai pour nous faire part de votre décision.

Sans nouvelle de votre part au-delà de cette date, vous serez inscrits définitivement pour le 12 septembre 2021.

Nous comptons sur notre compréhension.
Prenez soin de vous.
L'équipe d'organisation

TOP